Miscellaneous Local Product
Issued by NWS Hastings, NE

Home | Current Version | Previous Version | Text Only | Print | Product List | Glossary Off
Versions: 1 2 3 4 5 6 7 8 9 10 11 12 13 14 15 16 17 18 19 20 21 22 23 24 25 26 27 28 29 30 31 32 33 34 35 36 37 38 39 40 41 42 43 44 45 46 47 48 49 50

296
AXUS43 KGID 251802
MISGRI

GID CWA HOURLY WEATHER ROUNDUP
NATIONAL WEATHER SERVICE HASTINGS NE
100 PM CDT SUN SEP 25 2016

NOTE: "FAIR" INDICATES FEW OR NO CLOUDS BELOW 12,000 FEET WITH NO
SIGNIFICANT WEATHER AND/OR OBSTRUCTIONS TO VISIBILITY.

...SOUTH CENTRAL NEBRASKA...

CITY           SKY/WX    TMP DP  RH WIND       PRES   REMARKS
GRAND ISLAND   MOSUNNY   68  44  42 NW23G31   30.23S
HASTINGS       SUNNY     69  42  37 NW20G26   30.24F
KEARNEY        SUNNY     70  36  28 NW20G29   30.25S
ORD            SUNNY     67  36  31 NW28G37   30.21S
YORK           SUNNY     68  45  42 NW18G26   30.20S
AURORA         MOSUNNY   67  44  41 NW20G28   30.22S
LEXINGTON      SUNNY     67  36  31 NW22G35   30.28S
HOLDREGE       SUNNY     68  38  33 NW17G25   30.27F
HEBRON         SUNNY     70  45  39 NW17G24   30.20F

...NEBRASKA PANHANDLE...

CITY           SKY/WX    TMP DP  RH WIND       PRES   REMARKS
CHADRON        SUNNY     61  29  29 NW18G32   30.38S
ALLIANCE       SUNNY     62  34  35 NW26G36   30.36F
SCOTTSBLUFF    SUNNY     63  36  36 NW17G30   30.41F
SIDNEY         LGT RAIN  63  36  36 NW25      30.41F

...WESTERN AND NORTH CENTRAL NEBRASKA...

CITY           SKY/WX    TMP DP  RH WIND       PRES   REMARKS
VALENTINE      SUNNY     63  28  26 NW22G41   30.26S
AINSWORTH      SUNNY     63  33  33 NW24G33   30.25S
ONEILL         SUNNY     67  35  31 NW29G36   30.19S
BROKEN BOW     SUNNY     67  33  28 NW26G36   30.25F
IMPERIAL       SUNNY     67  34  29 N21G37    30.35F
NORTH PLATTE   SUNNY     70  33  25 NW22G37   30.30F
MCCOOK         SUNNY     70  39  32 N20G26    30.30F

...EASTERN NEBRASKA...

CITY           SKY/WX    TMP DP  RH WIND       PRES   REMARKS
NORFOLK        CLOUDY    64  45  49 NW15G31   30.15S
SO SIOUX CITY  CLOUDY    64  49  57 NW23G30   30.10R
TEKAMAH        PTSUNNY   69  47  45 W21G30    30.12S
COLUMBUS       MOSUNNY  N/A N/A N/A NW18G28   30.17S
ALBION         MOSUNNY   67  43  41 NW22G31   30.18S
OMAHA EPPLEY   CLOUDY    70  49  47 NW15      30.12F
OFFUTT AFB     CLOUDY    68  51  55 NW15G22   30.12F
MILLARD        PTSUNNY   69  49  49 NW15G22   30.13F
LINCOLN        MOSUNNY   71  47  42 NW22G29   30.16F
NEBRASKA CITY  CLOUDY    65  41  41 N14G22    30.15F
BEATRICE       CLOUDY    69  49  49 NW21G26   30.17F
FALLS CITY     MOSUNNY   65  50  58 NW16G22   30.14F

...NORTHERN KANSAS...

CITY           SKY/WX    TMP DP  RH WIND       PRES   REMARKS
GOODLAND       SUNNY     67  33  28 N22G30    30.37F
HILL CITY      SUNNY     71  43  36 N17G24    30.30F
NORTON         CLEAR     72  30  21 NW15G23   30.29F
PHILLIPSBURG   SUNNY     72  39  30 NW18G24   30.28S
SMITH CENTER   SUNNY     72  41  33 N21G26    30.26S
HAYS           SUNNY     72  43  35 N22       30.28F
CONCORDIA      SUNNY     71  48  43 N15G24    30.22F
SALINA         PTSUNNY   70  50  49 N20       30.22F
TOPEKA         CLOUDY    64  55  72 NW5       30.18S



USA.gov is the U.S. government's official web portal to all federal, state and local government web resources and services.